Wind_Speed
13 13 13 13 13 14 14 14 13 13 14 14 14 14 14 14 14 13 13 14 14 14 14 14 14 14 15 15 16 16 17 17 17 18 18 18 18 19 19 19 20 20 21 21 22 22 22 22 20 18 15 14 15 14 14 14 15 16 16 16 16 16 16 16 16 17 17 17 17
13 13 13 13 13 13 13 13 13 13 13 13 13 13 13 13 13 13 13 13 13 13 13 13 14 14 15 15 16 16 16 17 17 18 18 18 18 19 19 19 20 20 21 21 22 21 21 21 20 17 15 15 15 15 14 14 15 16 17 16 16 15 15 15 16 16 17 17 17
13 13 13 13 13 13 13 13 13 13 13 13 13 13 13 13 13 12 12 12 12 13 13 13 13 14 15 15 15 16 16 17 17 18 18 18 19 19 19 20 20 20 21 21 21 21 21 21 19 16 15 15 15 15 15 15 15 16 16 16 15 15 15 15 15 16 17 17 17
12 12 12 12 12 12 12 12 12 12 12 12 12 12 12 12 12 12 12 12 12 12 13 13 13 14 15 15 15 15 16 16 17 18 18 19 19 19 19 20 20 21 21 21 21 21 21 20 18 16 15 15 14 14 15 16 16 16 15 15 15 14 14 14 15 16 16 17 17
12 12 12 11 11 11 11 11 11 11 12 12 12 12 12 12 12 12 12 12 12 12 12 13 13 14 14 15 15 16 16 17 17 18 18 19 19 20 20 20 20 20 21 21 21 21 21 20 17 15 14 15 14 14 15 16 16 16 15 15 14 14 14 14 15 16 16 17 18
11 11 11 10 10 10 10 10 10 11 11 11 11 12 12 12 12 12 12 12 12 12 12 13 13 14 15 15 16 16 17 17 18 18 18 19 19 20 20 20 20 20 21 21 21 21 21 20 17 15 14 15 14 14 15 16 16 16 16 15 14 14 14 15 16 16 17 18 19
10 10 10 10 9 10 10 10 10 10 10 10 11 11 11 11 11 12 12 12 12 12 13 13 13 14 15 15 16 17 17 18 18 18 19 19 19 20 20 20 20 20 21 21 21 20 20 19 17 15 15 15 15 15 16 17 17 17 16 16 15 14 15 16 16 17 18 19 21
10 10 9 9 9 9 10 10 10 10 10 11 11 11 11 11 11 11 12 12 13 13 13 13 13 14 15 15 16 17 17 18 18 19 19 19 20 20 20 21 21 20 20 21 21 20 20 18 16 15 16 16 16 16 17 18 18 18 17 16 16 15 15 16 17 18 19 20 21
10 9 9 9 9 9 9 10 10 10 10 11 11 11 11 11 11 12 12 12 12 13 13 13 13 14 15 15 16 17 17 18 18 19 19 19 20 20 20 20 21 21 21 21 21 21 20 18 16 16 16 17 17 17 18 19 19 19 17 16 16 16 17 17 18 19 20 20 21
9 9 9 9 9 9 9 10 10 10 10 10 10 11 11 11 11 12 12 12 12 12 13 13 13 14 15 16 16 17 17 18 18 19 19 20 20 20 20 20 21 21 21 21 21 21 20 18 17 17 18 18 18 19 19 19 19 19 18 16 17 18 18 18 19 19 20 21 21
9 9 9 9 9 9 9 9 10 10 10 10 10 10 11 11 11 11 12 12 12 13 13 13 14 14 15 16 17 17 18 18 19 19 20 20 20 20 21 21 21 21 21 21 21 20 19 18 18 20 20 19 19 19 19 19 19 18 18 17 17 18 19 20 20 20 20 21 21
9 9 9 9 9 9 9 9 9 10 10 10 10 10 11 11 11 11 12 12 13 13 13 13 14 14 15 16 17 18 18 18 19 19 20 20 21 21 21 21 21 21 21 21 21 20 19 19 20 21 21 21 19 18 19 19 19 19 18 18 18 19 20 20 21 21 21 21 22
9 9 9 9 9 9 9 9 9 10 10 10 10 11 11 11 11 12 12 12 13 13 13 14 14 14 15 16 17 18 19 19 20 20 20 21 21 21 21 21 21 21 21 21 21 21 20 20 20 21 22 21 20 19 19 19 19 18 18 19 20 20 20 21 21 21 22 22 22
8 9 9 9 9 9 9 9 10 10 10 10 10 11 11 11 12 12 12 13 13 13 14 14 15 15 15 16 17 18 19 20 20 21 21 21 22 22 22 21 22 22 22 21 21 21 21 21 21 21 21 21 21 21 20 19 19 18 19 20 20 21 21 22 22 22 22 23 23
8 8 9 9 9 9 10 10 10 10 10 10 11 11 11 12 12 12 13 13 13 14 14 15 15 16 16 17 18 19 19 20 21 22 22 22 22 22 22 22 22 22 22 22 22 22 22 22 22 22 22 22 22 21 21 20 19 19 19 20 21 22 22 23 23 22 22 23 23
8 8 9 9 9 9 10 10 10 10 10 10 11 11 12 12 12 12 13 13 14 14 14 15 16 16 17 17 18 19 20 21 21 22 22 22 23 23 23 23 23 23 23 23 23 23 23 22 22 22 22 22 22 22 21 20 19 19 20 21 21 22 22 23 23 23 23 23 23
8 8 8 9 9 9 10 10 10 10 10 10 11 11 12 12 12 12 13 13 14 14 15 15 16 17 18 18 19 20 21 21 21 22 22 22 23 23 24 23 23 24 24 24 24 24 24 24 23 23 22 22 22 21 21 20 20 20 21 21 22 22 22 23 23 23 23 23 23
8 8 8 9 9 9 9 9 9 10 10 10 11 11 12 12 12 13 13 13 14 15 15 16 16 17 18 19 20 20 21 21 21 22 23 23 23 24 24 24 24 25 25 24 24 24 24 24 24 24 23 22 21 21 21 21 21 21 22 22 23 23 23 23 23 23 24 24 24
8 8 9 9 9 9 9 9 10 10 10 11 11 12 12 12 13 13 13 13 14 15 15 16 17 18 18 19 20 21 21 21 22 23 23 24 24 24 25 25 25 25 25 25 25 25 25 25 25 24 23 23 22 22 22 22 22 23 23 23 24 24 24 24 24 24 24 24 24
8 9 9 9 10 10 10 10 10 10 10 11 12 12 12 12 13 13 13 14 14 15 15 16 17 18 19 20 21 21 22 22 22 23 24 24 24 25 25 26 26 26 26 26 26 26 26 25 25 24 24 23 23 23 23 23 23 24 24 24 24 24 25 25 25 25 25 24 24
8 9 9 10 10 10 10 10 10 10 11 11 12 12 13 13 13 14 14 14 15 15 16 17 17 18 19 20 21 22 22 22 23 24 24 24 24 25 25 26 26 26 26 26 26 26 26 25 25 24 23 23 23 23 24 24 25 25 25 25 25 25 25 25 25 25 25 24 24
8 9 9 9 10 10 10 10 11 11 11 12 12 13 13 13 14 14 14 15 15 16 16 17 18 19 20 20 21 22 23 23 24 24 25 25 25 25 26 25 26 26 26 26 26 26 26 25 24 23 23 24 24 24 25 25 25 26 26 26 26 26 26 26 25 25 25 25 25
8 8 9 9 9 10 10 11 11 12 12 13 13 13 14 14 14 15 15 15 16 16 17 18 19 20 20 21 22 23 24 24 25 25 26 26 26 27 27 26 25 25 25 25 25 25 25 24 24 24 24 24 25 25 26 26 26 27 27 27 27 27 27 26 26 25 25 25 25
8 8 9 9 10 10 11 11 12 12 13 13 14 14 14 15 15 16 16 17 17 18 18 19 20 21 21 22 22 23 24 25 25 26 27 27 27 27 27 26 24 24 24 25 25 24 24 24 24 24 24 24 25 26 26 26 26 27 27 28 28 28 27 27 26 25 25 25 25
8 8 9 9 10 11 11 12 13 13 14 14 15 15 15 16 16 17 17 18 18 19 20 20 21 22 22 22 23 24 24 25 25 26 27 27 27 27 27 25 24 24 25 25 25 24 24 24 24 25 25 26 26 26 27 27 27 27 27 27 27 28 28 27 27 26 26 26 26
8 8 9 10 11 11 12 13 14 14 15 15 16 16 16 17 17 18 19 19 20 20 21 21 22 22 22 22 23 24 25 25 25 26 27 27 28 28 27 25 24 24 25 25 26 26 26 26 26 26 26 26 27 27 27 27 27 27 27 27 27 27 27 27 27 27 27 27 27
8 9 10 11 12 12 13 14 15 15 16 16 17 17 17 18 18 19 20 20 21 22 22 22 23 22 22 23 24 25 25 26 26 26 27 27 28 28 27 25 24 24 25 27 27 27 26 26 27 27 27 27 27 27 27 27 27 27 26 26 26 26 26 26 27 28 28 28 28
9 10 11 12 13 14 14 15 16 16 17 17 18 18 18 19 19 20 21 21 22 23 23 23 23 23 23 23 24 25 26 26 27 27 27 27 27 27 27 26 26 26 27 27 27 27 26 27 27 28 28 28 28 27 27 27 27 26 26 26 26 25 26 26 27 28 29 29 29
10 11 13 13 14 15 16 16 17 17 18 18 19 19 20 20 20 21 22 23 23 23 23 23 23 23 23 23 24 25 26 26 27 27 27 28 27 27 27 27 27 28 29 28 27 27 27 27 28 29 29 29 28 27 27 26 26 26 26 26 25 25 26 27 27 28 28 29 29
11 13 14 15 15 16 17 17 18 18 19 19 20 20 21 21 22 22 23 23 23 23 23 23 23 23 24 24 25 25 26 27 27 27 27 27 27 26 27 27 28 29 29 28 27 27 27 28 29 29 29 29 29 28 27 26 26 26 26 26 26 26 27 27 28 28 28 28 29
12 14 15 15 16 17 17 18 18 19 20 20 21 21 21 22 22 23 23 23 23 23 24 24 24 25 25 26 26 26 26 27 27 27 26 26 26 27 28 29 29 28 27 27 26 27 28 29 29 30 30 30 29 28 27 26 26 26 26 26 26 27 27 27 28 28 28 28 29
13 14 15 16 17 17 18 18 19 20 20 21 21 22 22 22 23 23 24 24 24 24 25 25 25 26 26 26 26 26 26 26 26 26 26 27 27 28 29 28 27 27 27 26 27 28 29 29 30 30 30 30 30 28 27 27 26 26 26 26 27 27 27 27 27 27 28 28 29
14 15 16 17 17 18 18 19 19 20 21 21 22 22 23 23 24 24 24 24 24 24 24 24 25 25 25 26 26 26 26 25 25 26 27 28 28 28 28 27 26 26 27 27 28 28 29 30 30 30 30 30 29 28 27 26 26 26 26 26 26 27 27 27 27 27 28 28 29
15 16 17 17 18 18 19 19 20 21 21 22 23 23 23 24 25 25 25 24 24 24 24 24 24 24 24 24 25 25 25 25 25 26 27 28 28 28 27 26 25 27 28 29 28 29 29 29 30 30 30 30 29 27 27 26 26 26 26 26 26 26 27 27 27 28 28 28 28
16 16 17 17 18 18 19 19 20 21 22 23 23 24 24 24 25 25 25 25 24 24 24 25 25 25 25 25 25 24 25 25 26 26 26 27 27 28 27 26 27 28 29 29 29 29 29 29 30 30 30 29 28 27 26 26 26 26 26 26 26 27 27 27 27 28 28 28 28
15 16 16 17 17 18 19 19 20 21 22 23 24 24 25 25 25 25 25 25 25 25 25 25 26 26 26 25 25 24 24 25 26 27 26 26 26 27 27 27 28 29 29 29 28 29 29 29 29 30 29 28 27 26 26 26 26 26 26 26 26 27 27 27 28 28 28 27 26
15 15 16 16 17 18 19 19 20 21 22 23 24 24 25 25 25 25 25 24 25 25 25 25 26 26 26 26 25 25 25 25 26 26 26 26 25 26 27 27 28 28 29 29 29 29 29 29 29 29 29 28 27 26 26 25 25 25 26 26 26 27 27 27 27 27 27 26 23
14 14 15 16 16 17 19 19 20 21 22 23 24 24 24 25 25 25 24 23 24 24 25 26 25 25 26 26 26 25 25 25 26 26 26 26 26 25 26 27 28 28 28 29 29 29 29 28 28 28 28 27 27 26 25 25 25 25 25 26 26 27 27 27 27 27 26 23 21
13 14 14 15 16 17 18 19 20 21 22 23 24 24 25 25 25 24 24 23 23 24 25 25 25 25 26 26 26 26 26 26 26 26 26 26 26 25 25 26 27 28 29 29 29 28 28 28 27 27 27 27 26 25 25 24 25 25 26 26 26 27 27 27 27 26 24 21 20
13 14 14 15 16 18 19 20 20 21 22 23 24 24 24 24 24 24 24 24 24 24 24 24 25 25 26 26 26 26 27 27 27 27 26 26 26 26 25 26 27 28 29 29 29 28 27 27 27 27 27 26 25 25 24 24 25 25 26 26 26 27 28 28 28 25 22 21 21
13 14 15 16 17 18 19 20 21 21 22 23 23 24 24 24 24 25 25 25 26 25 24 24 25 26 26 26 26 26 27 28 28 28 27 26 26 26 26 26 27 28 29 28 28 27 26 26 26 27 27 26 26 25 24 24 25 25 26 26 27 28 28 29 27 24 21 21 22
Wind_Direction
69 69 69 69 68 69 69 68 64 59 55 52 50 46 43 41 41 37 33 30 28 25 24 24 24 23 21 20 19 18 18 17 17 17 17 17 16 14 13 12 11 10 8 7 5 3 1 0 359 356 350 346 342 340 339 338 337 336 334 333 331 329 328 326 325 325 325 324 324
70 68 67 68 67 66 66 64 60 55 50 46 44 41 39 37 37 35 32 30 27 25 24 24 23 22 21 20 20 19 18 18 17 17 17 17 16 14 13 12 10 9 8 7 5 3 1 0 359 354 348 344 343 341 339 338 337 335 333 333 331 329 328 327 326 326 326 325 325
70 68 66 65 64 63 63 61 57 52 47 43 38 36 35 34 34 33 31 29 27 25 24 24 22 20 20 20 20 20 19 18 17 17 17 16 15 14 12 10 9 8 7 5 4 2 1 0 358 353 347 343 342 340 338 337 336 335 333 331 330 329 328 326 326 326 326 325 325
70 67 65 63 61 60 59 56 52 48 43 38 34 32 31 32 31 31 29 27 25 25 24 23 21 19 18 18 19 19 19 18 17 17 16 15 14 12 11 9 8 6 5 3 2 1 0 359 356 351 345 342 340 338 336 335 335 334 332 330 329 327 326 325 326 326 325 324 324
70 67 64 62 60 57 55 51 48 44 39 33 30 29 29 29 29 28 27 25 25 24 23 21 20 18 16 16 17 17 17 17 16 15 15 13 12 10 9 7 6 4 2 0 359 359 358 357 353 348 343 341 338 336 335 334 333 332 330 328 327 326 325 324 325 325 324 323 323
71 67 64 61 58 55 52 47 43 39 35 30 28 28 29 28 27 26 25 24 22 21 20 19 18 16 14 14 14 15 15 15 15 14 13 11 10 8 6 5 4 2 0 358 357 356 356 354 350 345 341 339 336 333 333 334 332 330 328 326 325 324 324 324 324 324 323 323 322
73 69 65 60 56 52 49 43 38 33 30 27 27 28 28 27 26 26 24 22 20 18 17 17 16 14 13 13 13 13 13 13 13 12 11 9 8 6 4 3 1 0 358 356 355 353 353 351 347 342 339 338 334 332 332 333 332 329 325 323 322 323 323 323 323 323 323 322 322
73 68 63 58 53 48 44 39 34 30 28 27 27 27 27 26 24 23 22 20 19 17 15 14 14 12 12 12 12 11 11 10 10 10 9 8 6 4 2 1 359 357 356 354 352 351 350 349 344 340 337 336 333 331 332 333 331 327 323 321 320 321 322 322 322 322 322 322 322
72 66 60 54 48 43 39 35 30 27 27 28 27 26 25 24 22 20 19 18 16 14 12 11 10 10 10 11 11 10 9 8 7 7 7 6 4 2 0 358 356 355 353 352 351 349 348 346 341 338 336 334 331 329 329 331 329 326 323 320 320 321 321 322 322 322 321 321 321
69 63 57 51 45 39 35 31 28 26 26 27 26 25 23 22 20 18 16 13 11 10 10 9 8 8 9 9 9 9 9 8 6 4 4 3 2 360 358 356 354 353 351 351 349 348 346 342 338 336 335 333 331 329 328 329 327 325 322 320 320 320 320 321 322 322 321 320 319
65 59 52 47 42 36 31 30 27 25 25 25 24 22 20 18 16 14 11 7 7 8 8 6 6 7 7 7 7 8 7 6 5 3 2 1 360 358 356 355 353 351 350 349 348 346 343 340 337 335 334 333 332 330 328 328 326 323 321 319 319 319 320 321 322 322 320 319 318
60 53 47 42 37 32 29 28 26 24 22 21 18 16 14 12 9 7 4 3 4 4 4 3 4 6 7 6 6 5 5 5 4 3 0 358 358 357 355 354 352 350 348 347 346 344 341 338 336 334 334 333 331 329 327 326 325 322 320 319 320 320 319 320 320 320 319 318 317
54 49 43 37 32 27 25 24 23 20 18 15 12 9 8 6 3 0 359 360 0 1 1 1 3 5 6 5 4 4 3 3 3 1 359 357 356 355 353 352 350 348 346 345 344 342 340 337 336 334 332 331 330 328 326 325 323 321 320 319 320 320 319 318 318 318 318 317 316
49 44 38 32 27 23 21 20 18 15 12 8 5 3 1 0 359 358 357 357 358 358 359 359 0 2 3 3 2 2 2 2 1 360 358 356 355 353 351 349 348 347 345 343 342 341 340 337 335 333 331 329 327 326 325 324 321 319 319 319 319 318 317 317 317 317 316 316 315
45 39 33 28 24 20 17 15 12 9 6 3 0 358 357 357 357 356 356 356 356 357 357 357 358 359 0 0 0 0 1 1 1 359 356 355 354 352 350 348 347 346 344 343 341 340 339 337 335 333 330 328 326 325 324 322 319 318 318 318 317 316 316 316 316 315 315 314 314
40 35 30 25 22 18 14 12 8 4 1 359 356 355 355 355 355 355 355 354 354 355 356 356 356 357 358 359 359 359 360 0 359 357 355 353 352 351 349 348 346 345 343 342 340 339 337 336 334 332 330 327 325 324 322 319 317 316 316 315 314 314 314 313 313 313 313 312 311
36 32 28 24 20 16 13 9 4 0 358 356 355 354 354 354 354 354 354 353 352 352 353 354 354 355 357 358 358 359 359 358 357 355 353 351 350 349 348 346 345 344 342 341 339 337 336 335 334 332 329 326 324 321 319 317 316 315 315 313 313 312 311 311 311 311 311 310 309
32 29 26 22 18 14 9 4 0 358 356 355 355 354 354 352 352 353 353 352 351 351 351 352 353 354 356 357 358 359 358 355 354 353 352 351 350 348 347 345 344 343 342 340 338 336 335 334 333 331 328 325 322 319 317 316 315 314 313 313 312 311 310 309 309 309 309 309 308
29 27 23 19 14 9 4 0 357 356 355 354 354 354 353 351 350 350 350 350 350 350 350 351 352 353 355 356 357 358 357 355 352 351 351 350 349 348 346 345 344 343 342 340 337 336 335 334 332 330 327 324 320 318 317 315 314 313 313 311 310 309 309 308 307 307 308 307 307
27 25 21 15 10 5 1 358 356 355 354 354 353 353 352 350 349 348 349 349 349 350 350 351 351 352 353 354 355 356 355 354 352 350 349 349 348 347 345 344 343 342 341 339 337 336 335 334 332 329 325 322 319 317 316 315 314 313 312 311 309 308 308 307 307 307 307 307 307
26 23 18 11 6 2 359 357 356 355 354 353 352 352 350 348 348 348 348 348 349 349 350 351 351 352 353 353 353 353 353 352 351 349 348 347 346 346 345 343 342 340 339 338 337 336 335 333 330 326 322 320 318 316 315 315 313 312 311 310 309 308 307 307 306 307 307 307 307
26 21 15 9 3 0 358 356 355 354 354 353 351 350 348 347 347 347 347 348 348 349 350 350 351 351 352 352 352 352 351 350 349 348 348 347 345 345 344 343 341 339 338 336 336 335 333 330 327 323 320 319 318 316 315 314 313 312 311 310 308 308 307 307 307 307 307 308 308
23 18 11 6 1 358 356 355 354 353 353 352 350 349 347 347 346 346 347 348 348 349 349 349 350 351 352 353 352 351 349 348 347 347 347 346 345 344 343 342 340 338 336 335 334 333 331 327 324 322 320 319 317 316 315 314 312 311 310 309 309 308 308 307 308 308 308 308 309
19 14 8 2 359 356 355 353 353 353 352 351 349 348 347 346 345 346 346 347 347 348 348 348 349 350 351 352 351 350 348 346 345 345 345 345 344 343 342 341 338 336 334 333 333 331 328 324 322 321 320 319 317 316 314 313 312 311 310 309 309 308 308 308 308 309 309 309 309
14 9 5 0 358 355 354 353 352 352 351 349 348 347 346 346 346 345 346 346 347 347 347 348 348 349 350 350 349 348 347 346 344 343 343 342 342 342 341 339 336 334 332 332 330 328 325 322 321 321 319 318 317 315 314 312 311 310 309 309 308 309 309 309 309 310 310 310 310
8 5 3 360 357 355 353 352 351 350 349 348 347 347 346 346 345 345 346 346 346 346 346 347 348 348 347 346 346 346 345 345 343 342 341 340 340 339 339 337 334 332 330 329 328 326 324 322 321 320 319 318 317 315 314 312 311 310 309 308 308 308 309 310 310 311 311 311 311
4 3 1 358 356 354 352 350 349 348 348 347 347 346 345 345 345 345 345 346 346 346 346 347 347 346 345 344 343 343 343 343 342 341 340 339 338 337 336 334 331 329 328 328 327 325 323 321 321 320 319 318 317 315 314 312 310 310 309 309 308 309 309 310 310 311 312 312 312
1 360 358 356 354 352 350 349 348 348 347 347 346 346 345 345 345 345 345 346 346 346 346 346 345 345 343 342 341 341 341 341 340 339 338 337 336 335 333 330 329 327 327 328 327 325 322 321 320 320 319 319 317 315 313 311 310 310 309 309 309 309 309 310 311 311 312 312 312
359 357 354 353 352 350 349 348 348 347 347 346 345 345 344 345 345 345 345 346 346 347 346 344 343 342 341 340 340 339 339 339 339 338 337 335 334 332 330 328 326 326 327 328 326 323 321 321 320 319 319 318 317 315 313 312 311 310 310 310 309 309 310 310 310 311 311 311 311
358 354 353 351 350 349 349 348 347 346 345 345 344 344 344 345 345 345 346 346 346 346 344 342 341 340 340 339 339 338 337 337 337 336 335 333 330 328 326 326 325 326 327 327 324 322 321 321 320 319 318 318 317 315 313 311 310 310 309 309 309 309 309 310 310 310 310 310 310
355 353 351 350 350 349 348 347 346 345 344 344 344 344 344 344 344 345 345 345 344 343 342 341 340 340 339 338 337 336 336 335 335 334 332 330 327 325 325 325 325 325 325 324 322 321 321 320 319 319 318 319 318 316 313 312 310 309 309 308 308 309 309 310 310 310 310 309 309
354 352 350 350 349 348 347 345 344 344 343 343 343 343 344 343 344 344 344 344 343 342 341 341 339 338 337 337 336 335 334 333 332 330 329 327 325 324 324 323 323 323 322 322 321 320 320 320 319 319 318 319 318 316 313 312 310 309 308 308 308 309 310 310 310 309 309 307 307
352 351 350 349 348 347 345 344 343 342 342 342 343 343 343 343 343 343 344 343 342 341 340 338 337 336 334 334 333 333 332 329 328 327 326 325 324 323 322 321 321 321 322 321 320 320 320 319 319 318 319 319 318 316 314 312 311 310 309 309 309 310 310 310 309 308 307 306 305
351 350 349 348 347 345 344 343 342 342 342 342 342 343 343 343 342 343 343 342 340 338 337 335 334 333 332 331 330 329 328 326 325 324 324 324 323 321 320 319 319 320 321 321 320 319 319 319 319 319 319 319 318 316 314 313 312 311 310 310 310 310 310 310 309 308 306 304 303
351 350 348 347 345 344 343 342 341 341 342 342 342 343 343 343 342 342 341 340 338 336 335 334 333 332 331 330 329 327 325 324 323 322 322 322 321 320 318 317 318 319 321 320 320 319 319 319 319 319 320 320 319 317 316 314 313 312 311 311 311 311 311 310 309 307 305 304 303
351 349 346 345 343 342 341 341 341 342 342 342 342 342 342 342 342 342 341 339 337 335 333 332 332 331 330 328 327 325 323 322 321 320 320 320 320 318 317 316 317 319 320 320 320 319 319 319 319 320 320 320 319 318 317 315 314 313 313 312 312 311 311 310 308 306 305 304 303
349 347 344 342 341 340 340 341 341 342 342 343 343 342 341 341 341 341 340 338 335 333 332 331 330 329 328 326 324 322 321 320 319 318 318 319 318 317 316 316 316 318 319 320 320 319 319 319 319 320 321 321 320 319 318 316 315 314 313 313 312 311 310 309 307 306 304 303 304
346 344 342 340 339 339 340 341 342 342 342 342 342 342 341 341 340 339 339 336 333 331 329 328 328 326 325 324 321 320 320 319 319 317 317 317 317 317 316 315 315 316 318 320 320 319 318 319 319 321 322 322 320 319 318 317 315 314 313 312 311 311 310 308 307 306 304 303 304
343 341 340 339 339 339 340 341 342 343 342 342 341 341 341 341 339 337 336 334 332 329 327 326 324 323 322 322 320 318 318 318 318 318 316 316 317 316 315 314 314 315 318 320 320 319 318 319 320 322 322 322 320 319 318 317 315 314 313 312 311 310 310 308 307 305 303 302 306
339 339 339 339 340 340 341 342 343 343 343 342 341 341 340 339 336 335 334 333 331 329 326 323 322 321 321 320 319 317 317 317 318 318 317 316 316 316 315 313 313 314 317 320 320 318 317 319 321 322 323 322 321 320 318 317 315 314 313 312 311 311 310 309 307 304 303 305 310
337 338 339 341 342 342 342 343 343 344 344 343 342 340 339 337 335 335 334 332 331 328 325 322 320 319 319 319 318 317 316 316 317 318 318 317 316 316 315 314 313 314 316 319 319 318 318 320 321 323 323 323 322 320 319 317 315 313 312 311 311 310 309 308 306 304 306 311 314
Height
793 793 793 793 793 792 792 792 792 792 791 791 791 790 790 790 789 789 788 788 787 786 786 785 784 784 783 782 781 780 780 779 778 777 777 776 775 774 773 772 771 770 769 768 767 766 765 764 762 761 760 760 759 758 756 755 754 753 752 750 749 748 746 745 744 743 741 740 739
794 794 793 793 793 793 792 792 792 792 791 791 791 790 790 790 789 789 789 788 787 787 786 785 784 784 783 782 781 780 780 779 778 777 776 776 775 774 773 772 771 770 769 768 767 765 764 763 762 761 760 759 758 757 756 754 754 752 751 749 748 747 745 744 743 742 740 739 738
794 794 794 794 793 793 793 793 792 792 792 791 791 791 790 790 790 789 789 788 788 787 786 785 785 784 783 782 781 780 780 779 778 777 776 775 774 774 773 771 770 769 768 767 766 765 764 763 761 761 760 759 757 756 755 754 753 751 750 749 747 746 745 744 742 741 739 738 737
794 794 794 794 794 793 793 793 793 792 792 792 791 791 791 790 790 789 789 789 788 787 786 786 785 784 783 782 781 780 779 779 778 777 776 775 774 773 772 771 770 769 768 767 766 764 763 762 761 760 759 758 757 756 754 753 752 751 749 748 747 745 744 743 742 740 739 737 736
795 794 794 794 794 794 793 793 793 792 792 792 791 791 791 790 790 790 789 789 788 787 787 786 785 784 783 782 781 780 779 778 777 776 775 774 774 772 771 770 769 768 767 766 765 764 763 761 760 759 759 757 756 755 754 753 751 750 749 747 746 745 744 742 741 739 738 737 735
795 795 795 794 794 794 794 793 793 792 792 792 791 791 790 790 790 789 789 789 788 787 787 786 785 784 783 782 781 780 779 778 777 776 775 774 773 772 771 770 769 768 767 765 764 763 762 761 760 759 758 757 755 754 753 752 750 749 748 746 745 744 743 741 740 739 737 736 734
795 795 795 795 794 794 794 793 793 792 792 792 791 791 790 790 790 789 789 789 788 787 786 786 785 784 783 782 781 779 778 777 776 775 774 773 772 771 770 769 768 767 766 765 764 762 761 760 759 758 757 756 754 753 752 751 749 748 747 745 744 743 742 740 739 738 736 735 734
796 795 795 795 794 794 794 793 793 792 792 791 791 791 790 790 790 789 789 789 788 787 786 785 785 784 783 782 780 779 778 777 776 774 774 773 771 770 769 768 767 766 765 764 763 762 760 759 759 757 756 755 754 752 751 750 749 747 746 744 743 742 741 740 738 737 735 734 732
796 795 795 795 794 794 794 794 793 793 792 791 791 791 790 790 789 789 789 788 788 787 786 785 784 784 782 781 780 779 777 776 775 774 773 772 771 770 769 768 766 765 764 763 762 761 759 759 758 757 755 754 753 751 750 749 747 746 745 744 742 741 739 739 737 736 734 733 731
796 795 795 795 794 794 794 793 793 793 792 792 791 791 790 790 789 789 788 788 787 787 786 785 784 783 782 780 779 778 777 776 774 774 772 771 770 769 768 767 766 764 763 762 761 760 759 758 757 756 754 753 752 750 749 747 746 745 744 742 741 739 738 737 736 734 733 731 730
796 795 795 795 794 794 794 793 793 792 792 791 791 790 790 789 789 789 788 788 787 786 785 784 783 782 781 780 779 778 776 775 774 773 772 771 769 769 767 766 765 764 763 761 760 759 758 757 756 754 753 752 750 749 747 746 745 744 742 741 740 738 737 735 734 733 731 730 728
796 795 795 795 794 794 794 793 793 792 792 791 791 790 790 789 789 788 788 787 786 785 785 784 783 782 780 779 778 777 776 774 774 772 771 770 769 768 767 765 764 763 762 761 759 759 757 756 754 753 751 750 749 748 746 745 744 742 741 739 738 737 735 734 733 731 730 728 727
795 795 795 794 794 794 794 793 793 792 791 791 790 790 789 789 789 788 787 786 786 785 784 783 782 781 780 779 777 776 775 774 773 772 770 769 768 767 766 764 764 762 761 760 759 758 756 755 754 752 750 749 748 747 745 744 742 741 739 738 737 735 734 732 731 729 728 727 725
795 795 794 794 794 794 793 793 792 792 791 791 790 790 789 789 788 788 787 786 785 784 783 782 781 780 779 778 777 775 774 773 772 771 769 769 767 766 765 764 763 761 760 759 758 756 755 754 752 751 749 748 746 745 744 743 741 740 739 737 735 734 732 731 729 728 726 725 723
795 794 794 794 794 793 793 793 792 792 791 790 790 789 789 789 788 787 786 785 784 783 782 781 780 779 778 777 776 775 774 772 771 770 769 768 766 765 764 763 762 760 759 758 757 755 754 753 751 749 748 747 745 744 742 741 740 739 737 736 734 732 731 729 728 726 725 723 721
795 794 794 794 793 793 792 792 792 792 791 790 790 789 789 788 787 786 785 784 783 783 782 780 779 778 777 776 775 774 773 771 770 769 768 767 765 764 763 762 761 759 758 757 755 754 753 752 750 749 747 745 744 742 741 739 738 737 735 734 733 731 729 728 726 724 723 721 720
795 794 794 793 793 792 792 792 792 791 791 790 790 789 788 788 787 786 785 784 783 782 781 780 779 778 776 775 774 773 772 770 769 768 767 766 764 763 762 761 759 758 757 755 754 753 751 750 749 747 746 744 743 741 739 738 737 735 734 732 731 729 728 726 724 723 721 720 718
795 794 794 793 793 792 792 792 791 791 791 790 789 789 788 787 786 785 784 783 782 781 780 779 778 777 776 774 773 772 771 770 769 767 766 765 764 763 761 760 759 757 756 754 753 752 750 749 747 746 744 743 741 740 738 737 735 734 732 730 729 727 726 724 723 721 720 718 717
795 794 794 793 793 792 792 791 791 791 790 789 789 788 787 786 785 784 783 782 781 780 779 778 777 776 775 774 772 771 770 769 768 767 765 764 763 762 760 759 757 756 755 753 752 750 749 747 746 744 743 741 740 738 737 735 734 732 730 729 727 725 724 722 721 719 718 717 715
795 794 794 793 793 792 792 791 791 790 790 789 788 788 787 786 785 784 783 782 781 779 779 777 776 775 774 773 771 770 769 768 767 766 764 763 762 760 759 758 756 755 754 752 751 749 748 746 744 743 741 740 738 737 735 733 732 730 728 727 725 723 722 720 719 718 716 715 714
795 794 794 793 793 792 792 791 791 790 789 789 788 787 786 785 784 783 782 781 780 779 778 776 775 774 773 771 770 769 768 767 766 765 764 762 761 760 758 757 755 754 752 751 749 748 746 745 744 742 740 739 737 735 734 732 730 728 726 725 723 721 720 719 717 716 715 714 712
794 794 794 793 793 792 792 791 790 790 789 788 787 786 785 784 784 783 781 780 779 778 777 775 774 773 772 770 769 768 767 766 765 764 763 761 760 759 757 756 754 753 751 750 748 747 745 744 743 741 739 737 735 734 732 730 728 726 724 723 721 719 718 717 715 714 713 712 710
794 794 793 793 793 792 792 791 790 789 788 787 786 785 784 784 783 782 781 779 778 777 776 774 773 772 770 769 768 767 766 765 764 763 762 760 759 757 756 755 753 752 750 749 748 746 744 743 741 740 738 736 734 732 730 728 726 724 723 721 719 718 716 715 714 712 711 710 709
794 793 793 793 792 792 791 790 789 788 787 786 786 785 784 783 782 781 779 779 777 776 774 773 772 771 769 768 767 766 765 764 762 761 760 759 758 756 755 754 752 751 749 748 747 746 744 743 741 739 737 735 733 731 729 727 725 723 721 719 717 716 714 713 712 711 709 708 707
794 793 793 792 792 791 790 789 789 788 787 786 785 784 783 782 781 780 779 777 776 775 773 772 771 769 768 767 766 765 764 763 761 760 758 757 756 755 754 753 751 750 749 747 746 745 744 742 740 738 736 734 732 729 727 725 724 722 720 718 716 714 713 711 710 709 708 706 705
793 793 792 791 791 790 789 789 788 787 786 785 784 783 782 781 780 779 777 776 775 773 772 771 769 768 767 766 765 764 763 762 760 759 758 756 755 754 753 752 750 749 747 746 744 743 742 740 739 738 736 733 731 729 726 724 722 720 719 717 715 713 711 709 708 707 706 704 703
793 792 791 791 790 789 789 788 787 786 785 784 783 782 781 780 779 778 776 775 774 772 771 769 768 767 766 765 764 763 762 760 759 758 757 755 754 753 751 750 749 748 746 744 743 742 740 739 737 736 734 732 730 728 725 723 720 719 717 715 714 712 710 709 707 705 704 702 701
792 791 790 790 789 789 788 787 786 785 784 783 782 781 780 779 778 776 775 774 772 771 769 769 767 766 765 764 763 762 760 759 758 757 755 754 753 752 750 749 748 746 745 743 742 740 739 737 736 734 733 731 729 727 724 722 719 717 715 714 712 711 709 708 706 704 703 701 699
791 790 790 789 788 788 787 786 785 784 783 782 781 780 779 778 777 775 774 773 771 770 769 768 767 765 764 763 762 761 759 758 757 756 754 753 752 751 749 748 746 745 743 742 740 739 737 736 734 732 731 729 728 725 723 720 718 716 714 713 711 709 708 706 705 703 701 699 698
790 789 789 788 787 787 786 785 784 783 782 781 780 779 778 777 775 774 773 771 770 769 768 767 766 764 764 762 761 759 758 757 756 755 754 752 751 749 748 747 745 743 741 740 739 737 736 734 732 731 729 728 726 724 722 719 717 715 713 711 710 708 707 705 704 702 700 698 696
789 789 788 787 786 786 785 784 784 783 782 780 779 778 777 776 774 773 772 771 769 768 767 766 765 764 762 761 760 759 757 756 755 754 753 751 750 748 746 745 743 741 740 739 738 736 734 733 731 729 728 726 724 722 720 718 716 714 712 710 708 707 705 704 702 700 699 697 695
789 788 787 786 785 785 784 783 783 782 781 780 779 777 776 775 774 772 771 770 769 767 766 765 764 762 761 760 759 758 756 755 754 753 751 750 749 747 745 743 742 740 739 738 736 735 733 731 729 728 726 724 722 720 718 716 714 712 710 709 707 706 704 703 701 699 697 696 694
788 787 786 785 785 784 783 783 782 781 780 779 778 776 775 774 772 771 770 769 768 766 765 764 763 761 760 759 757 756 755 754 753 752 750 749 747 745 744 742 741 739 738 736 735 733 731 729 728 726 724 722 721 719 716 714 713 711 709 707 705 704 703 701 699 698 696 694 692
787 786 785 784 784 783 783 782 781 780 779 778 776 775 774 773 771 770 769 768 767 766 764 763 762 761 759 758 757 755 754 753 752 750 749 747 745 744 742 741 739 738 736 734 733 732 730 728 726 724 723 721 719 717 714 713 711 709 707 705 704 702 701 699 698 696 694 692 690
786 785 784 784 784 783 782 781 780 779 778 776 775 774 773 772 770 769 768 767 766 764 763 762 761 760 759 757 756 755 754 752 750 749 748 746 744 742 741 739 738 736 735 734 732 730 729 727 725 723 721 719 717 715 713 711 709 707 705 704 702 700 699 698 696 694 692 690 689
785 784 784 784 783 782 781 780 779 778 777 775 774 773 772 771 769 769 767 766 764 763 762 761 759 758 757 756 755 754 753 751 749 747 746 745 744 741 739 738 736 734 733 732 730 729 727 725 724 722 720 718 716 714 712 709 707 705 704 702 700 699 697 695 694 692 690 689 687
785 784 784 783 782 781 780 779 778 777 776 774 773 772 771 769 769 767 766 765 764 762 761 759 758 757 756 754 754 752 751 750 748 746 745 744 742 741 738 736 734 733 732 730 729 727 726 724 722 720 719 717 714 712 710 708 706 704 702 701 699 697 695 694 692 690 688 686 685
784 784 783 782 782 781 779 779 777 776 775 774 772 771 770 769 768 766 765 764 763 761 759 758 757 756 755 754 752 751 749 749 747 745 744 742 741 739 738 735 733 732 731 729 728 726 724 723 721 719 718 716 713 711 709 707 705 703 701 699 697 695 694 692 690 688 686 684 683
784 784 783 782 781 779 779 777 776 775 774 773 771 770 769 768 767 766 765 764 762 761 759 758 756 755 754 752 751 749 748 747 746 744 743 741 739 738 737 734 732 730 729 728 726 724 723 721 720 718 717 715 713 710 708 706 704 702 700 698 696 694 692 690 688 686 684 682 681
784 783 782 781 780 779 777 776 775 774 773 772 770 769 768 767 766 765 764 763 761 760 759 757 756 754 753 752 750 748 746 744 744 743 741 740 738 737 735 734 731 729 728 726 725 723 722 720 719 717 715 714 712 710 708 705 703 701 699 697 694 692 689 688 686 684 682 681 679
783 782 781 780 779 778 776 775 774 773 772 771 770 769 767 766 765 764 763 761 760 759 758 756 755 753 752 750 749 747 745 743 741 740 739 738 737 735 734 732 730 728 726 725 723 722 720 719 718 716 714 713 711 709 707 705 702 700 698 695 693 691 688 685 684 682 681 679 678